Content
SEND FEEDBACK

Daily
Averages
Monthly
Summary
United States of America

POTTS JUNCTION, GUAM


Home > North America > United States > Guam
Elevation: 360 feet     Latitude: 13 33N     Longitude: 144 50E

WEATHER
 
SELECT A DAY
Number of Records: 209,230;   Date Range: 1/1/95 - 9/3/14
 
SHARE

PRINT THIS DATA

[ ← Previous Day ]
WEATHER ALMANAC - OCTOBER 6, 2013
[ Next Day → ]
[ °C ]   °F
Weather ElementAverageHighLow
Temperature82.3 °F87.1 °F (2:54 pm)78.8 °F (4:01 am)
Dewpoint77.4 °F79 °F (12:54 pm)75.2 °F (2:01 am)
Humidity85.3 %94 % (7:05 am)69 % (2:54 pm)
Barometer29.72 in29.78 in (8:50 am)29.67 in (2:54 am)
Wind Speed5.3 mph10.4 mph (10:54 am)
Weather ElementAverage
Visibility10 mi
Wind DirectionE (91.1 °)

Weather ElementTotal
Precipitation---
Cooling Degree Days18 (Base 65)
Growing Degree Days33 (Base 50)
Averaged from 36 records on October 6, 2013
WEATHER CONDITIONS BREAKOUT
WIND DIRECTION BREAKOUT
WEATHER BY HOUR - OCTOBER 6, 2013
[ °C ]   °F
Local TimeTemperatureDewpointHumidityBarometerVisibilityWind DirectionWind SpeedGust SpeedPrecipitationEventsConditions
1:47 AM80.6 °F77.0 °F89 %29.71 in10.0 miSSE (150°)5.8 mphMostly Cloudy
1:54 AM81.0 °F77.0 °F88 %29.69 in10.0 miSSE (160°)5.8 mphMostly Cloudy
2:01 AM80.6 °F75.2 °F84 %29.71 in10.0 miSSE (160°)5.8 mphMostly Cloudy
2:17 AM80.6 °F75.2 °F84 %29.70 in10.0 miSSE (160°)5.8 mphScattered Clouds
2:54 AM81.0 °F77.0 °F88 %29.67 in10.0 miSSE (160°)4.6 mphScattered Clouds
3:43 AM80.6 °F77.0 °F89 %29.69 in10.0 miVariable3.5 mphMostly Cloudy
3:54 AM79.0 °F75.9 °F90 %29.67 in10.0 miCalmMostly Cloudy
4:01 AM78.8 °F75.2 °F89 %29.69 in10.0 miCalmScattered Clouds
4:54 AM81.0 °F75.9 °F85 %29.68 in10.0 miCalmPartly Cloudy
5:54 AM80.1 °F77.0 °F90 %29.69 in10.0 miESE (120°)3.5 mphClear
6:54 AM80.1 °F77.0 °F90 %29.72 in10.0 miCalmScattered Clouds
7:05 AM80.6 °F78.8 °F94 %29.74 in10.0 miCalmMostly Cloudy
7:23 AM82.4 °F78.8 °F89 %29.75 in10.0 miCalmScattered Clouds
7:50 AM82.4 °F78.8 °F89 %29.77 in10.0 miESE (120°)5.8 mphMostly Cloudy
7:54 AM82.9 °F78.1 °F85 %29.75 in10.0 miSE (130°)4.6 mphMostly Cloudy
8:14 AM82.4 °F78.8 °F89 %29.76 in10.0 miSE (130°)5.8 mphMostly Cloudy
8:50 AM82.4 °F78.8 °F89 %29.78 in10.0 miESE (110°)4.6 mphMostly Cloudy
8:54 AM82.0 °F78.1 °F88 %29.75 in10.0 miESE (120°)5.8 mphMostly Cloudy
9:07 AM82.4 °F78.8 °F89 %29.78 in10.0 miESE (120°)5.8 mph0.00 inRainLight Rain
9:54 AM82.0 °F78.1 °F88 %29.77 in10.0 miESE (110°)5.8 mph0.00 inClear
10:54 AM82.9 °F78.1 °F85 %29.75 in10.0 miESE (110°)10.4 mphPartly Cloudy
11:54 AM84.0 °F78.1 °F82 %29.73 in10.0 miESE (110°)8.1 mphMostly Cloudy
12:24 PM84.2 °F78.8 °F84 %29.73 in10.0 miESE (110°)10.4 mphMostly Cloudy
12:33 PM84.2 °F78.8 °F84 %29.73 in10.0 miEast (100°)8.1 mphScattered Clouds
12:54 PM86.0 °F79.0 °F79 %29.70 in10.0 miVariable5.8 mphScattered Clouds
1:54 PM86.0 °F78.1 °F77 %29.69 in10.0 miSE (140°)6.9 mphScattered Clouds
2:54 PM87.1 °F75.9 °F69 %29.67 in10.0 miSE (140°)6.9 mphScattered Clouds
3:54 PM84.9 °F77.0 °F77 %29.68 in10.0 miESE (110°)6.9 mphPartly Cloudy
4:54 PM84.0 °F77.0 °F79 %29.68 in10.0 miEast (90°)8.1 mphPartly Cloudy
5:54 PM82.9 °F77.0 °F82 %29.69 in10.0 miEast (80°)9.2 mphPartly Cloudy
6:54 PM82.0 °F77.0 °F85 %29.72 in10.0 miEast (90°)5.8 mphClear
7:54 PM82.0 °F77.0 °F85 %29.74 in10.0 miEast (90°)5.8 mphPartly Cloudy
8:54 PM82.9 °F77.0 °F82 %29.75 in10.0 miEast (90°)6.9 mphMostly Cloudy
9:54 PM82.0 °F77.0 °F85 %29.74 in10.0 miEast (90°)6.9 mphClear
10:54 PM82.0 °F77.0 °F85 %29.74 in10.0 miEast (90°)5.8 mphPartly Cloudy
11:54 PM82.0 °F77.0 °F85 %29.73 in10.0 miEast (90°)6.9 mphPartly Cloudy
Hourly data recorded from PGUM, located miles away from Potts Junction, Guam







STORIES FROM OUR PARTNERS